Torna al catalogo

DMSP 5D-2 F13 DEB

AttivoSSO
NORAD 42327·DEBRIS·🇺🇸 United States

Lanciato Mar 24, 1995 da Vandenberg Space Force Base

Loading…

Prossimi Passaggi (prossime 24 ore)

TLE

AggiornatoSource: Space-Track

Epoca: Sep 12, 2026, 08:17 UTC

1 42327U 95015JV  26255.34519850  .00002646  00000-0  83104-3 0  9990
2 42327  98.6712 296.6589 0006942 107.2422 252.9527 14.41348482566263

Traccia DMSP 5D-2 F13 DEB in tempo reale con AllMySat

Download on the App Store